sat.trackr.live / text

‹ back to catalog

STARLINK-11277 [DTC]

NORAD 61205 · 2024-171F

PAYLOAD ACTIVE UNKNOWN

§ Identity

Operator
Country
US
Launch date
2024-09-20
Launch site
AFWTR
Launch vehicle
Mass (kg)
RCS (m²)

Purposes: comms

External: N2YO · Heavens-Above · Gunter

§ Orbital elements

Epoch: 2026-05-25T01:08:24.101088Z

Period
91.74 min
Inclination
53.1589°
Eccentricity
0.0001093
Mean motion
15.69701025 rev/d
Perigee alt
359.0 km
Apogee alt
360.5 km
Semi-major
6,737.9 km
B*
4.1011e-5
RAAN
159.6928°
Arg perigee
64.9354°
Mean anomaly
295.1778°
Rev number
9,639

§ Raw data

STARLINK-11277 [DTC]1 61205U 24171F   26145.04750117  .00004381  00000+0  41011-4 0  99982 61205  53.1589 159.6928 0001093  64.9354 295.1778 15.69701025 96393

JSON: /api/v1/satellites/61205 · /tle

For live sub-satellite position, see the globe view (requires WebGL).

§ Visibility from observer

Set your observer location to see the next 7 days of passes ≥ 10°. The values pass through the URL so the page stays shareable.

No JS? Fill the form by hand. The geolocation button needs JavaScript.